Total_Precipitation_Accumulation
0.93 0.94 0.92 0.85 0.79 0.77 0.79 0.77 0.70 0.61 0.54 0.47 0.42 0.42 0.40 0.37 0.37 0.39 0.42 0.45 0.53 0.57 0.54 0.54 0.59 0.63 0.71 0.78 0.88 0.97 1.09 1.19 1.29 1.13 0.92 0.88 0.92 0.95 0.98 0.88 0.81 0.77 0.72
0.76 0.74 0.73 0.65 0.59 0.59 0.58 0.57 0.53 0.50 0.48 0.47 0.45 0.43 0.39 0.35 0.33 0.33 0.35 0.35 0.38 0.41 0.43 0.45 0.44 0.46 0.54 0.60 0.70 0.78 0.86 0.96 1.11 1.12 0.96 0.89 0.91 0.96 1.01 0.98 0.85 0.73 0.68
0.49 0.49 0.54 0.55 0.52 0.54 0.51 0.49 0.51 0.48 0.45 0.42 0.42 0.41 0.38 0.35 0.36 0.35 0.32 0.32 0.31 0.33 0.36 0.38 0.40 0.44 0.50 0.56 0.63 0.67 0.75 0.82 0.97 1.05 0.98 0.92 0.93 0.98 1.06 1.00 0.83 0.79 0.61
0.40 0.38 0.42 0.45 0.46 0.47 0.48 0.46 0.43 0.40 0.39 0.34 0.31 0.32 0.33 0.32 0.29 0.28 0.27 0.27 0.27 0.28 0.29 0.30 0.33 0.40 0.47 0.53 0.57 0.63 0.73 0.83 0.91 1.00 1.01 1.00 1.00 1.01 1.06 1.09 0.93 0.80 0.64
0.41 0.41 0.42 0.44 0.43 0.44 0.45 0.44 0.38 0.34 0.31 0.27 0.24 0.25 0.27 0.26 0.23 0.21 0.22 0.21 0.23 0.26 0.28 0.28 0.27 0.33 0.42 0.46 0.51 0.63 0.77 0.88 0.90 0.96 0.99 1.01 1.03 1.08 1.06 1.00 0.93 0.79 0.63
0.49 0.50 0.46 0.45 0.45 0.47 0.44 0.40 0.35 0.33 0.30 0.26 0.25 0.24 0.21 0.19 0.21 0.20 0.19 0.22 0.26 0.31 0.35 0.33 0.26 0.25 0.29 0.35 0.43 0.53 0.65 0.79 0.90 0.97 0.99 0.97 0.96 0.99 0.99 0.97 0.96 0.92 0.79
0.53 0.50 0.46 0.42 0.41 0.40 0.36 0.35 0.32 0.31 0.29 0.27 0.27 0.26 0.24 0.17 0.14 0.14 0.16 0.20 0.28 0.36 0.38 0.36 0.30 0.26 0.31 0.36 0.39 0.42 0.51 0.64 0.83 0.98 1.03 0.93 0.96 1.03 1.07 1.07 0.98 0.98 0.92
0.49 0.45 0.39 0.37 0.38 0.35 0.33 0.34 0.32 0.33 0.34 0.31 0.27 0.27 0.27 0.16 0.12 0.13 0.15 0.22 0.31 0.33 0.31 0.32 0.38 0.42 0.36 0.34 0.36 0.49 0.64 0.73 0.75 0.77 0.91 0.91 0.93 0.93 0.89 0.91 0.88 0.93 0.85
0.43 0.39 0.34 0.30 0.30 0.30 0.30 0.32 0.33 0.36 0.40 0.33 0.27 0.29 0.28 0.20 0.14 0.15 0.16 0.23 0.31 0.31 0.28 0.27 0.31 0.39 0.36 0.40 0.52 0.71 0.91 1.05 0.92 0.86 0.90 1.01 1.04 0.91 0.74 0.73 0.92 1.02 0.88
0.35 0.31 0.29 0.28 0.29 0.30 0.32 0.34 0.31 0.34 0.40 0.31 0.23 0.25 0.24 0.20 0.14 0.16 0.19 0.23 0.31 0.33 0.35 0.33 0.36 0.38 0.39 0.51 0.63 0.87 1.09 1.20 1.02 0.95 1.05 1.18 1.12 1.04 0.95 0.94 1.06 1.03 0.89
0.22 0.22 0.24 0.26 0.27 0.25 0.31 0.34 0.33 0.34 0.38 0.34 0.28 0.26 0.22 0.16 0.14 0.18 0.18 0.20 0.28 0.36 0.38 0.43 0.45 0.46 0.44 0.56 0.74 0.91 1.12 1.16 1.10 1.06 1.04 1.03 1.02 1.02 0.95 0.94 0.92 0.88 0.86
0.18 0.20 0.22 0.22 0.18 0.18 0.28 0.32 0.33 0.38 0.36 0.35 0.33 0.29 0.23 0.18 0.13 0.12 0.11 0.13 0.22 0.36 0.46 0.50 0.50 0.49 0.51 0.67 0.82 1.02 1.23 1.32 1.18 1.03 0.89 0.82 0.80 0.84 0.81 0.70 0.63 0.61 0.65
0.20 0.24 0.23 0.20 0.20 0.18 0.23 0.26 0.28 0.35 0.35 0.32 0.31 0.29 0.24 0.21 0.14 0.08 0.08 0.09 0.15 0.27 0.42 0.55 0.57 0.52 0.68 0.96 1.13 1.24 1.41 1.46 1.24 0.96 0.83 0.74 0.67 0.63 0.61 0.59 0.54 0.50 0.48
0.25 0.25 0.23 0.24 0.25 0.21 0.20 0.18 0.19 0.23 0.25 0.29 0.29 0.28 0.27 0.24 0.16 0.11 0.12 0.14 0.17 0.22 0.34 0.53 0.66 0.71 0.87 1.15 1.36 1.46 1.51 1.40 1.14 0.91 0.77 0.69 0.60 0.55 0.56 0.52 0.51 0.47 0.48
0.23 0.20 0.19 0.20 0.21 0.21 0.17 0.12 0.10 0.11 0.09 0.16 0.22 0.24 0.25 0.20 0.13 0.13 0.15 0.17 0.20 0.25 0.32 0.49 0.68 0.78 0.97 1.19 1.32 1.33 1.27 1.17 1.06 0.88 0.74 0.66 0.62 0.59 0.56 0.49 0.47 0.42 0.45
0.21 0.17 0.16 0.14 0.13 0.12 0.14 0.13 0.07 0.05 0.06 0.07 0.11 0.13 0.14 0.13 0.11 0.11 0.12 0.17 0.23 0.29 0.37 0.57 0.74 0.83 0.97 1.09 1.16 1.13 1.05 0.96 0.86 0.77 0.71 0.63 0.59 0.56 0.54 0.47 0.40 0.39 0.45
0.14 0.14 0.12 0.09 0.09 0.11 0.13 0.17 0.19 0.13 0.08 0.08 0.08 0.10 0.10 0.10 0.10 0.10 0.12 0.18 0.21 0.27 0.40 0.61 0.77 0.88 0.97 1.01 1.01 0.96 0.90 0.84 0.73 0.66 0.62 0.57 0.51 0.47 0.45 0.40 0.36 0.36 0.37
0.07 0.06 0.06 0.08 0.07 0.09 0.08 0.10 0.16 0.24 0.24 0.19 0.11 0.08 0.08 0.09 0.11 0.11 0.14 0.18 0.26 0.30 0.45 0.61 0.73 0.78 0.84 0.88 0.85 0.83 0.78 0.71 0.62 0.58 0.58 0.54 0.46 0.40 0.37 0.34 0.32 0.29 0.28
0.05 0.06 0.04 0.04 0.03 0.04 0.04 0.05 0.08 0.13 0.19 0.20 0.18 0.12 0.08 0.10 0.13 0.16 0.18 0.23 0.32 0.38 0.46 0.55 0.62 0.66 0.69 0.72 0.69 0.66 0.64 0.60 0.53 0.49 0.49 0.49 0.46 0.39 0.33 0.26 0.22 0.17 0.18
0.03 0.02 0.02 0.02 0.02 0.02 0.03 0.05 0.07 0.09 0.12 0.16 0.18 0.15 0.14 0.21 0.27 0.26 0.22 0.21 0.26 0.34 0.41 0.49 0.52 0.51 0.51 0.53 0.50 0.45 0.45 0.45 0.43 0.42 0.42 0.41 0.39 0.33 0.26 0.22 0.18 0.16 0.15
0.01 0.01 0.01 0.01 0.01 0.02 0.03 0.04 0.05 0.07 0.11 0.14 0.13 0.11 0.18 0.25 0.33 0.31 0.28 0.28 0.31 0.34 0.36 0.38 0.41 0.42 0.38 0.35 0.35 0.34 0.35 0.36 0.36 0.37 0.35 0.34 0.31 0.26 0.20 0.15 0.12 0.10 0.09
0.01 0.01 0.01 0.01 0.01 0.01 0.01 0.03 0.04 0.05 0.08 0.11 0.11 0.10 0.18 0.24 0.31 0.33 0.33 0.35 0.36 0.37 0.35 0.33 0.32 0.33 0.34 0.33 0.31 0.30 0.30 0.30 0.32 0.33 0.31 0.29 0.26 0.20 0.15 0.11 0.08 0.06 0.06
0.01 0.01 0.01 0.00 0.00 0.01 0.01 0.02 0.03 0.03 0.05 0.06 0.08 0.09 0.14 0.24 0.30 0.36 0.39 0.39 0.38 0.36 0.31 0.28 0.29 0.31 0.30 0.27 0.25 0.24 0.24 0.25 0.28 0.30 0.30 0.26 0.21 0.17 0.12 0.09 0.06 0.05 0.03
0.00 0.00 0.00 0.00 0.00 0.00 0.01 0.01 0.02 0.02 0.03 0.04 0.05 0.08 0.12 0.19 0.25 0.33 0.40 0.42 0.44 0.42 0.37 0.33 0.31 0.30 0.27 0.24 0.24 0.22 0.18 0.19 0.22 0.25 0.26 0.22 0.16 0.12 0.09 0.07 0.05 0.04 0.04
0.00 0.00 0.00 0.00 0.00 0.00 0.01 0.01 0.01 0.01 0.02 0.02 0.03 0.05 0.08 0.12 0.18 0.25 0.31 0.37 0.41 0.45 0.45 0.42 0.38 0.32 0.26 0.21 0.17 0.14 0.16 0.19 0.17 0.17 0.22 0.19 0.12 0.08 0.07 0.06 0.05 0.04 0.04
0.00 0.00 0.00 0.00 0.00 0.00 0.00 0.01 0.01 0.01 0.01 0.01 0.02 0.03 0.06 0.09 0.13 0.17 0.20 0.22 0.27 0.33 0.39 0.44 0.43 0.33 0.24 0.19 0.17 0.16 0.15 0.10 0.07 0.07 0.16 0.17 0.11 0.09 0.07 0.07 0.05 0.05 0.05